• In Belgium
  • List of Countries
  • For 7 days
  • Water Temperature
  • Satellite Maps
  • Weather Map
  • Weather Widgets
  • user-avatar
    Login

    Hourly Weather Gembloux

    Today, 23 July, Monday

    Time Temperature Precipitation Wind Pressure Humidity
    00:00 +16°C° 0 mm 0 mps 748 mmHg 85%
    01:00 +16°C° 0 mm 0 mps 748 mmHg 86%
    02:00 +18°C° 0 mm 1 mps 748 mmHg 86%
    03:00 +16°C° 0 mm 1 mps 748 mmHg 87%
    04:00 +18°C° 0 mm 1 mps 748 mmHg 84%
    05:00 +19°C° 0 mm 1 mps 749 mmHg 80%
    06:00 +20°C° 0 mm 1 mps 749 mmHg 77%
    07:00 +22°C° 0 mm 1 mps 749 mmHg 69%
    08:00 +24°C° 0 mm 2 mps 749 mmHg 62%
    09:00 +26°C° 0 mm 2 mps 749 mmHg 54%
    10:00 +27°C° 0 mm 2 mps 749 mmHg 51%
    11:00 +28°C° 0 mm 2 mps 749 mmHg 48%
    12:00 +29°C° 0 mm 2 mps 749 mmHg 45%
    13:00 +29°C° 0 mm 2 mps 748 mmHg 45%
    14:00 +29°C° 0 mm 2 mps 748 mmHg 45%
    15:00 +29°C° 0 mm 2 mps 748 mmHg 45%
    16:00 +29°C° 0 mm 1 mps 748 mmHg 48%
    17:00 +29°C° 0 mm 1 mps 748 mmHg 51%
    18:00 +28°C° 0 mm 1 mps 748 mmHg 55%
    19:00 +26°C° 0 mm 1 mps 748 mmHg 60%
    20:00 +24°C° 0 mm 1 mps 748 mmHg 64%
    21:00 +22°C° 0 mm 1 mps 748 mmHg 69%
    22:00 +21°C° 0 mm 1 mps 748 mmHg 72%
    23:00 +21°C° 0 mm 1 mps 748 mmHg 76%

    Tomorrow, 24 July, Tuesday

    Time Temperature Precipitation Wind Pressure Humidity
    00:00 +20°C° 0 mm 1 mps 748 mmHg 79%
    01:00 +20°C° 0 mm 1 mps 748 mmHg 80%
    02:00 +17°C° 0 mm 0 mps 747 mmHg 82%
    03:00 +17°C° 0 mm 0 mps 747 mmHg 84%
    04:00 +18°C° 0 mm 0 mps 747 mmHg 80%
    05:00 +19°C° 0 mm 0 mps 747 mmHg 77%
    06:00 +20°C° 0 mm 0 mps 747 mmHg 73%
    07:00 +24°C° 0 mm 1 mps 747 mmHg 67%
    08:00 +26°C° 0 mm 1 mps 747 mmHg 61%
    09:00 +28°C° 0 mm 1 mps 747 mmHg 54%
    10:00 +29°C° 0 mm 1 mps 747 mmHg 52%
    11:00 +30°C° 0 mm 1 mps 747 mmHg 49%
    12:00 +31°C° 0 mm 1 mps 746 mmHg 46%
    13:00 +31°C° 0 mm 1 mps 746 mmHg 46%
    14:00 +30°C° 0 mm 1 mps 746 mmHg 47%
    15:00 +30°C° 0 mm 1 mps 745 mmHg 48%
    16:00 +30°C° 0 mm 1 mps 745 mmHg 51%
    17:00 +29°C° 0 mm 1 mps 745 mmHg 55%
    18:00 +28°C° 0 mm 1 mps 745 mmHg 58%
    19:00 +27°C° 0 mm 1 mps 746 mmHg 62%
    20:00 +25°C° 0 mm 1 mps 746 mmHg 65%
    21:00 +23°C° 0 mm 2 mps 746 mmHg 69%
    22:00 +22°C° 0 mm 1 mps 746 mmHg 71%
    23:00 +22°C° 0 mm 1 mps 746 mmHg 73%

    Day after tomorrow, 25 July, Wednesday

    Time Temperature Precipitation Wind Pressure Humidity
    00:00 +21°C° 0 mm 1 mps 746 mmHg 74%
    01:00 +20°C° 0 mm 1 mps 746 mmHg 76%
    02:00 +20°C° 0 mm 1 mps 746 mmHg 78%
    03:00 +20°C° 0 mm 1 mps 746 mmHg 79%
    04:00 +21°C° 0 mm 1 mps 746 mmHg 77%
    05:00 +21°C° 0 mm 1 mps 746 mmHg 75%
    06:00 +20°C° 0 mm 0 mps 746 mmHg 72%
    07:00 +24°C° 0.1 mm 1 mps 746 mmHg 68%
    08:00 +26°C° 0.1 mm 1 mps 746 mmHg 63%
    09:00 +28°C° 0.1 mm 1 mps 747 mmHg 58%
    10:00 +29°C° 0.6 mm 1 mps 747 mmHg 55%
    11:00 +30°C° 0.6 mm 1 mps 746 mmHg 52%
    12:00 +31°C° 0.6 mm 1 mps 746 mmHg 48%
    13:00 +31°C° 0.1 mm 1 mps 746 mmHg 47%
    14:00 +31°C° 0.1 mm 1 mps 746 mmHg 46%
    15:00 +31°C° 0.1 mm 1 mps 746 mmHg 45%
    16:00 +31°C° 0 mm 1 mps 746 mmHg 49%
    17:00 +30°C° 0 mm 1 mps 746 mmHg 52%
    18:00 +29°C° 0 mm 1 mps 746 mmHg 56%
    19:00 +28°C° 0.1 mm 1 mps 747 mmHg 60%
    20:00 +26°C° 0.1 mm 1 mps 747 mmHg 64%
    21:00 +24°C° 0.1 mm 2 mps 747 mmHg 68%
    22:00 +23°C° 0.1 mm 2 mps 747 mmHg 71%
    23:00 +22°C° 0.1 mm 1 mps 747 mmHg 74%

    26 July, Thursday

    Time Temperature Precipitation Wind Pressure Humidity
    00:00 +22°C° 0.1 mm 1 mps 747 mmHg 76%
    01:00 +21°C° 0 mm 1 mps 747 mmHg 78%
    02:00 +21°C° 0 mm 1 mps 747 mmHg 80%
    03:00 +21°C° 0 mm 1 mps 747 mmHg 82%
    04:00 +22°C° 0 mm 1 mps 747 mmHg 80%
    05:00 +23°C° 0 mm 1 mps 747 mmHg 77%
    06:00 +23°C° 0 mm 1 mps 747 mmHg 75%
    07:00 +26°C° 0 mm 1 mps 747 mmHg 67%
    08:00 +28°C° 0 mm 1 mps 747 mmHg 60%
    09:00 +30°C° 0 mm 1 mps 747 mmHg 52%
    10:00 +31°C° 0 mm 1 mps 747 mmHg 48%
    11:00 +32°C° 0 mm 2 mps 747 mmHg 44%
    12:00 +34°C° 0 mm 2 mps 746 mmHg 40%
    13:00 +34°C° 0 mm 2 mps 746 mmHg 41%
    14:00 +34°C° 0 mm 2 mps 746 mmHg 42%
    15:00 +33°C° 0 mm 1 mps 746 mmHg 43%
    16:00 +32°C° 0 mm 1 mps 746 mmHg 46%
    17:00 +32°C° 0 mm 1 mps 746 mmHg 48%
    18:00 +31°C° 0 mm 1 mps 746 mmHg 51%
    19:00 +29°C° 0 mm 1 mps 746 mmHg 54%
    20:00 +28°C° 0 mm 1 mps 746 mmHg 58%
    21:00 +26°C° 0 mm 1 mps 746 mmHg 61%
    22:00 +25°C° 0.1 mm 1 mps 746 mmHg 64%
    23:00 +25°C° 0.1 mm 1 mps 746 mmHg 66%

    27 July, Friday

    Time Temperature Precipitation Wind Pressure Humidity
    00:00 +24°C° 0.1 mm 1 mps 746 mmHg 69%
    01:00 +23°C° 0.6 mm 1 mps 746 mmHg 72%
    02:00 +23°C° 0.6 mm 1 mps 746 mmHg 75%
    03:00 +22°C° 0.6 mm 1 mps 745 mmHg 78%
    04:00 +23°C° 0.2 mm 1 mps 746 mmHg 78%
    05:00 +23°C° 0.2 mm 2 mps 746 mmHg 77%
    06:00 +24°C° 0.2 mm 2 mps 746 mmHg 76%
    07:00 +26°C° 0 mm 2 mps 746 mmHg 68%
    08:00 +28°C° 0 mm 2 mps 746 mmHg 60%
    09:00 +30°C° 0 mm 2 mps 746 mmHg 52%
    10:00 +31°C° 0.1 mm 2 mps 746 mmHg 49%
    11:00 +32°C° 0.1 mm 2 mps 745 mmHg 46%
    12:00 +34°C° 0.1 mm 2 mps 745 mmHg 42%
    13:00 +34°C° 0 mm 2 mps 745 mmHg 43%
    14:00 +32°C° 0 mm 2 mps 745 mmHg 45%
    15:00 +32°C° 0 mm 2 mps 745 mmHg 46%
    16:00 +32°C° 0.1 mm 2 mps 745 mmHg 49%
    17:00 +31°C° 0.1 mm 1 mps 745 mmHg 53%
    18:00 +30°C° 0.1 mm 1 mps 745 mmHg 57%
    19:00 +28°C° 0.7 mm 2 mps 745 mmHg 64%
    20:00 +26°C° 0.7 mm 2 mps 745 mmHg 70%
    21:00 +24°C° 0.7 mm 2 mps 745 mmHg 77%
    22:00 +23°C° 0.4 mm 2 mps 745 mmHg 82%
    23:00 +21°C° 0.4 mm 2 mps 745 mmHg 87%

    28 July, Saturday

    Time Temperature Precipitation Wind Pressure Humidity
    00:00 +20°C° 0.4 mm 2 mps 745 mmHg 91%
    01:00 +20°C° 0.1 mm 2 mps 746 mmHg 91%
    02:00 +19°C° 0.1 mm 2 mps 746 mmHg 91%
    03:00 +18°C° 0.1 mm 2 mps 746 mmHg 91%
    04:00 +18°C° 0 mm 2 mps 746 mmHg 90%
    05:00 +19°C° 0 mm 2 mps 746 mmHg 88%
    06:00 +19°C° 0 mm 3 mps 746 mmHg 87%
    07:00 +21°C° 0 mm 3 mps 747 mmHg 80%
    08:00 +22°C° 0 mm 3 mps 747 mmHg 72%
    09:00 +25°C° 0 mm 3 mps 747 mmHg 65%
    10:00 +26°C° 0 mm 4 mps 747 mmHg 60%
    11:00 +27°C° 0 mm 4 mps 747 mmHg 55%
    12:00 +28°C° 0 mm 4 mps 748 mmHg 50%
    13:00 +28°C° 0 mm 4 mps 748 mmHg 50%
    14:00 +27°C° 0 mm 4 mps 748 mmHg 50%
    15:00 +27°C° 0 mm 4 mps 748 mmHg 51%
    16:00 +26°C° 0 mm 4 mps 748 mmHg 54%
    17:00 +25°C° 0 mm 4 mps 748 mmHg 57%
    18:00 +24°C° 0 mm 3 mps 748 mmHg 60%
    19:00 +22°C° 0 mm 3 mps 749 mmHg 64%
    20:00 +20°C° 0 mm 3 mps 749 mmHg 67%
    21:00 +18°C° 0 mm 2 mps 749 mmHg 70%
    22:00 +18°C° 0 mm 2 mps 749 mmHg 73%
    23:00 +17°C° 0 mm 2 mps 749 mmHg 76%
    Show more